Date String (YYYY-MM-DD hh:mm:ss) UTC,Instrument flags,Ambient pressure (hPa),Sample flow (lpm),Bypass flow (lpm),Sample temperature (°C),Ambient temperature (°C),ASC tube jacket temperature (°C),LED temperature (°C),Box temperature (°C),Sample RH (%),Span deviation,Mass concentration (μg/m³),Mass concentration (μg/m³),Mass concentration (μg/m³)
DateTimeUTC,F1_M11,P_M11,Q1_M11,Q2_M11,T1_M11,T2_M11,T3_M11,T4_M11,T5_M11,U1_M11,ZSPAN_M11,X0_M11,X2_M11,X1_M11
2023-05-09 08:00:00,,0828.1,5.01,0.00,28.9,26.8,00.0,37.5,30.4,16.1,0000.0,0009.78,0003.60,0002.32
2023-05-09 08:01:00,,0828.1,4.99,0.00,28.9,26.7,00.0,37.4,30.4,16.1,0000.0,0010.16,0003.60,0002.29
2023-05-09 08:02:00,,0828.1,4.98,0.00,28.8,26.8,00.0,37.4,30.4,15.9,0000.0,0010.17,0003.53,0002.28
2023-05-09 08:03:00,,0828.2,5.01,0.00,28.8,26.8,00.0,37.4,30.4,15.9,0000.0,0010.05,0003.51,0002.26
2023-05-09 08:04:00,,0828.2,5.01,0.00,28.8,26.8,00.0,37.4,30.4,15.9,0000.0,0009.91,0003.50,0002.25
2023-05-09 08:05:00,,0828.2,4.99,0.00,28.8,26.8,00.0,37.4,30.4,15.9,0000.0,0009.66,0003.49,0002.23
2023-05-09 08:06:00,,0828.2,4.99,0.00,28.8,26.8,00.0,37.4,30.3,16.1,0000.0,0009.13,0003.42,0002.21
2023-05-09 08:07:00,,0828.2,5.00,0.00,28.8,26.8,00.0,37.3,30.3,16.2,0000.0,0008.91,0003.37,0002.18
2023-05-09 08:08:00,,0828.2,5.00,0.00,28.7,26.7,00.0,37.3,30.3,16.4,0000.0,0008.92,0003.33,0002.18
2023-05-09 08:09:00,,0828.2,5.01,0.00,28.7,26.7,00.0,37.3,30.3,16.5,0000.0,0008.89,0003.34,0002.18
2023-05-09 08:10:00,,0828.2,5.01,0.00,28.7,26.7,00.0,37.3,30.3,16.4,0000.0,0008.67,0003.36,0002.16
2023-05-09 08:11:00,,0828.3,5.00,0.00,28.7,26.7,00.0,37.3,30.3,16.4,0000.0,0008.59,0003.33,0002.16
2023-05-09 08:12:00,,0828.3,5.00,0.00,28.7,26.7,00.0,37.3,30.3,16.4,0000.0,0007.96,0003.32,0002.15
2023-05-09 08:13:00,,0828.3,5.00,0.00,28.7,26.7,00.0,37.2,30.3,16.5,0000.0,0007.81,0003.35,0002.13
2023-05-09 08:14:00,,0828.3,5.00,0.00,28.7,26.7,00.0,37.2,30.3,16.5,0000.0,0007.79,0003.33,0002.12
2023-05-09 08:15:00,,0828.3,5.00,0.00,28.7,26.7,00.0,37.2,30.2,16.7,0000.0,0007.84,0003.38,0002.14
2023-05-09 08:16:00,,0828.3,5.00,0.00,28.7,26.6,00.0,37.2,30.2,16.6,0000.0,0007.79,0003.39,0002.14
2023-05-09 08:17:00,,0828.3,5.00,0.00,28.6,26.6,00.0,37.2,30.2,16.6,0000.0,0007.59,0003.40,0002.14
2023-05-09 08:18:00,,0828.3,4.99,0.00,28.6,26.6,00.0,37.2,30.2,16.6,0000.0,0007.95,0003.43,0002.13
2023-05-09 08:19:00,,0828.4,5.01,0.00,28.6,26.6,00.0,37.2,30.2,16.7,0000.0,0007.36,0003.44,0002.13
2023-05-09 08:20:00,,0828.4,5.01,0.00,28.6,26.6,00.0,37.2,30.2,16.7,0000.0,0007.43,0003.45,0002.12
2023-05-09 08:21:00,,0828.4,5.00,0.00,28.6,26.6,00.0,37.1,30.2,16.4,0000.0,0007.85,0003.43,0002.12
2023-05-09 08:22:00,,0828.3,4.99,0.00,28.6,26.6,00.0,37.1,30.2,16.1,0000.0,0008.41,0003.42,0002.12
2023-05-09 08:23:00,,0828.3,5.00,0.00,28.6,26.6,00.0,37.1,30.2,15.8,0000.0,0008.38,0003.43,0002.13
2023-05-09 08:24:00,,0828.3,5.01,0.00,28.6,26.7,00.0,37.1,30.2,15.7,0000.0,0008.54,0003.43,0002.13
2023-05-09 08:25:00,,0828.3,5.00,0.00,28.6,26.7,00.0,37.1,30.2,15.6,0000.0,0009.59,0003.40,0002.11
2023-05-09 08:26:00,,0828.3,5.00,0.00,28.6,26.7,00.0,37.1,30.2,15.4,0000.0,0009.53,0003.30,0002.06
2023-05-09 08:27:00,,0828.2,5.00,0.00,28.6,26.7,00.0,37.1,30.2,15.3,0000.0,0009.45,0003.25,0002.05
2023-05-09 08:28:00,,0828.2,5.00,0.00,28.6,26.7,00.0,37.1,30.2,15.2,0000.0,0009.39,0003.23,0002.02
2023-05-09 08:29:00,,0828.2,5.00,0.00,28.6,26.7,00.0,37.1,30.2,15.3,0000.0,0009.15,0003.18,0002.01
2023-05-09 08:30:00,,0828.1,5.00,0.00,28.6,26.7,00.0,37.1,30.2,15.3,0000.0,0009.00,0003.13,0001.99
2023-05-09 08:31:00,,0828.2,5.00,0.00,28.6,26.7,00.0,37.1,30.2,15.3,0000.0,0008.81,0003.06,0001.97
2023-05-09 08:32:00,,0828.2,5.00,0.00,28.6,26.7,00.0,37.0,30.2,15.4,0000.0,0008.53,0003.03,0001.96
2023-05-09 08:33:00,,0828.2,5.00,0.00,28.6,26.7,00.0,37.0,30.2,15.4,0000.0,0007.85,0003.03,0001.95
2023-05-09 08:34:00,,0828.2,5.00,0.00,28.6,26.7,00.0,37.0,30.2,15.7,0000.0,0007.96,0003.05,0001.94
2023-05-09 08:35:00,,0828.2,5.00,0.00,28.6,26.7,00.0,37.0,30.2,15.8,0000.0,0007.76,0003.00,0001.94
2023-05-09 08:36:00,,0828.2,5.00,0.00,28.5,26.6,00.0,37.0,30.2,16.2,0000.0,0006.86,0003.03,0001.95
2023-05-09 08:37:00,,0828.2,5.00,0.00,28.5,26.6,00.0,37.0,30.2,16.3,0000.0,0007.27,0003.07,0001.97
2023-05-09 08:38:00,,0828.2,5.00,0.00,28.5,26.6,00.0,37.0,30.1,16.0,0000.0,0007.29,0003.07,0001.98
2023-05-09 08:39:00,,0828.1,5.00,0.00,28.5,26.6,00.0,37.0,30.1,15.7,0000.0,0007.20,0003.07,0001.98
2023-05-09 08:40:00,,0828.2,5.00,0.00,28.5,26.6,00.0,37.0,30.1,16.2,0000.0,0006.89,0003.06,0001.99
2023-05-09 08:41:00,,0828.2,5.00,0.00,28.5,26.5,00.0,37.0,30.1,15.8,0000.0,0007.06,0003.13,0001.99
2023-05-09 08:42:00,,0828.2,5.00,0.00,28.5,26.5,00.0,37.0,30.1,15.8,0000.0,0007.32,0003.18,0002.00
2023-05-09 08:43:00,,0828.2,5.00,0.00,28.5,26.5,00.0,37.0,30.1,15.7,0000.0,0008.05,0003.18,0001.99
2023-05-09 08:44:00,,0828.2,5.00,0.00,28.4,26.5,00.0,36.9,30.0,15.7,0000.0,0008.14,0003.16,0001.98
2023-05-09 08:45:00,,0828.2,5.00,0.00,28.4,26.5,00.0,36.9,30.0,15.5,0000.0,0008.03,0003.11,0001.97
2023-05-09 08:46:00,,0828.3,5.00,0.00,28.4,26.4,00.0,36.9,30.0,15.5,0000.0,0008.70,0003.13,0001.98
2023-05-09 08:47:00,,0828.3,5.00,0.00,28.4,26.4,00.0,36.9,29.9,16.1,0000.0,0008.80,0003.18,0001.99
2023-05-09 08:48:00,,0828.3,5.00,0.00,28.4,26.4,00.0,36.9,29.9,16.2,0000.0,0009.50,0003.21,0001.98
2023-05-09 08:49:00,,0828.3,5.01,0.00,28.3,26.3,00.0,36.9,29.9,16.2,0000.0,0010.17,0003.24,0001.99
2023-05-09 08:50:00,,0828.4,5.01,0.00,28.3,26.3,00.0,36.9,29.9,16.0,0000.0,0010.67,0003.25,0001.99
2023-05-09 08:51:00,,0828.4,4.99,0.00,28.3,26.3,00.0,36.9,29.8,15.9,0000.0,0010.80,0003.29,0002.02
2023-05-09 08:52:00,,0828.3,4.99,0.00,28.3,26.2,00.0,36.8,29.8,15.9,0000.0,0010.91,0003.31,0002.03
2023-05-09 08:53:00,,0828.4,4.99,0.00,28.2,26.2,00.0,36.8,29.8,15.9,0000.0,0010.86,0003.31,0002.04
2023-05-09 08:54:00,,0828.3,5.00,0.00,28.2,26.1,00.0,36.8,29.7,16.1,0000.0,0010.09,0003.29,0002.05
2023-05-09 08:55:00,,0828.3,5.00,0.00,28.2,26.1,00.0,36.8,29.7,16.5,0000.0,0010.06,0003.30,0002.06
2023-05-09 08:56:00,,0828.3,5.00,0.00,28.1,26.0,00.0,36.8,29.7,16.6,0000.0,0010.03,0003.31,0002.06
2023-05-09 08:57:00,,0828.3,5.00,0.00,28.1,26.0,00.0,36.8,29.6,16.5,0000.0,0009.46,0003.31,0002.05
2023-05-09 08:58:00,,0828.3,5.00,0.00,28.1,25.9,00.0,36.7,29.6,16.4,0000.0,0009.21,0003.25,0002.04
2023-05-09 08:59:00,,0828.4,5.00,0.00,28.0,25.9,00.0,36.7,29.6,16.4,0000.0,0007.93,0003.20,0002.03
